period_start,C,m1,H,J0,J1,J2,J3,J4,J5,JA,JB,JC,JD,JJ,JK,JN,#
2018-04-16 00:02:43,0.19,4.75,0.00,30.72,33.88,36.82,13.49,48.52,1009.30,1994.99,1918.07,2019.87,2322.11,600.45,577.23,28.79,0000 0000 0000 0000 000000
2018-04-16 00:07:44,0.20,4.76,0.00,30.72,33.87,36.81,13.45,48.45,1009.31,1995.00,1916.06,2018.41,2320.42,599.56,576.26,28.84,0000 0000 0000 0000 000000
2018-04-16 00:12:46,0.20,4.77,0.00,30.71,33.86,36.81,13.53,48.61,1009.38,1995.00,1914.01,2016.86,2318.67,599.97,576.75,28.89,0000 0000 0000 0000 000000
2018-04-16 00:17:47,0.19,4.78,0.00,30.70,33.85,36.79,13.41,48.55,1009.43,1995.00,1912.07,2015.46,2316.92,599.67,576.57,28.94,0000 0000 0000 0000 000000
2018-04-16 00:22:48,0.19,4.79,0.00,30.68,33.85,36.78,13.46,48.36,1009.37,1995.00,1910.08,2013.90,2315.25,600.00,576.88,28.99,0000 0000 0000 0000 000000
2018-04-16 00:27:50,0.20,4.80,0.00,30.67,33.83,36.77,13.44,48.39,1009.29,1995.02,1908.11,2012.50,2313.60,600.04,576.78,29.04,0000 0000 0000 0000 000000
2018-04-16 00:32:52,0.18,4.81,0.00,30.66,33.82,36.76,13.52,48.26,1009.29,1995.06,1906.22,2011.00,2311.92,600.57,577.35,29.09,0000 0000 0000 0000 000000
2018-04-16 00:37:53,0.20,4.82,0.00,30.66,33.81,36.76,13.45,48.45,1009.29,1995.06,1904.28,2009.57,2310.32,600.01,576.90,29.14,0000 0000 0000 0000 000000
2018-04-16 00:42:54,0.19,4.83,0.00,30.64,33.80,36.75,13.47,48.38,1009.30,1995.12,1902.29,2008.22,2308.66,599.99,576.82,29.19,0000 0000 0000 0000 000000
2018-04-16 00:47:56,0.19,4.84,0.00,30.62,33.79,36.73,13.49,48.50,1009.29,1995.27,1900.43,2006.83,2307.11,599.97,576.91,29.24,0000 0000 0000 0000 000000
2018-04-16 00:52:57,0.19,4.85,0.00,30.61,33.77,36.71,13.47,48.50,1009.24,1995.23,1898.52,2005.42,2305.44,600.11,576.92,29.29,0000 0000 0000 0000 000000
2018-04-16 00:57:58,0.21,4.86,0.00,30.60,33.76,36.72,13.45,48.69,1008.98,1995.32,1896.60,2003.96,2303.74,599.58,576.35,29.34,0000 0000 0000 0000 000000
2018-04-16 01:03:00,0.20,4.87,0.00,30.60,33.75,36.70,13.47,48.63,1008.80,1995.46,1894.69,2002.57,2302.24,600.27,577.00,29.39,0000 0000 0000 0000 000000
2018-04-16 01:08:01,0.22,4.88,0.00,30.58,33.74,36.69,13.44,48.46,1008.80,1995.79,1892.78,2001.18,2300.65,599.98,576.70,29.44,0000 0000 0000 0000 000000
2018-04-16 01:13:02,0.22,4.89,0.00,30.56,33.72,36.67,13.54,48.57,1008.80,1995.91,1890.78,1999.74,2298.93,600.34,577.07,29.49,0000 0000 0000 0000 000000
2018-04-16 01:18:03,0.20,4.90,0.00,30.54,33.71,36.67,13.48,48.64,1008.80,1995.95,1888.74,1998.21,2297.24,600.02,576.79,29.54,0000 0000 0000 0000 000000
2018-04-16 01:23:04,0.19,4.91,0.00,30.49,33.70,36.65,13.47,48.63,1008.79,1995.96,1886.82,1996.78,2295.63,600.01,576.88,29.59,0000 0000 0000 0000 000000
2018-04-16 01:28:06,0.19,4.92,0.00,30.43,33.68,36.65,13.55,48.68,1008.79,1995.98,1884.84,1995.44,2293.92,600.22,577.18,29.64,0000 0000 0000 0000 000000
2018-04-16 01:33:07,0.20,4.93,0.00,30.40,33.67,36.63,13.55,48.61,1008.79,1995.99,1882.82,1993.88,2292.18,600.18,577.19,29.70,0000 0000 0000 0000 000000
2018-04-16 01:38:08,0.28,4.94,0.00,30.38,33.65,36.62,13.49,48.54,1008.61,1995.99,1880.20,1991.87,2289.93,599.89,576.81,29.75,0000 0000 0000 0000 000000
2018-04-16 01:43:09,0.21,4.96,0.00,30.38,33.63,36.59,13.56,48.67,1008.37,1996.00,1877.90,1990.28,2288.05,600.02,576.90,29.80,0000 0000 0000 0000 000000
2018-04-16 01:48:11,0.21,4.97,0.00,30.36,33.62,36.56,13.53,48.67,1008.34,1996.00,1875.90,1988.69,2286.27,599.86,576.64,29.85,0000 0000 0000 0000 000000
2018-04-16 01:53:12,0.18,4.98,0.00,30.35,33.60,36.55,13.53,48.50,1008.39,1996.00,1874.01,1987.31,2284.63,600.54,577.41,29.90,0000 0000 0000 0000 000000
2018-04-16 01:58:13,0.19,4.99,0.00,30.33,33.58,36.52,13.49,48.47,1008.48,1996.01,1872.15,1985.87,2282.98,599.88,576.89,29.95,0000 0000 0000 0000 000000
2018-04-16 02:03:14,0.20,5.00,0.00,30.32,33.56,36.50,13.53,48.59,1008.34,1996.02,1870.23,1984.48,2281.31,599.60,576.73,30.00,0000 0000 0000 0000 000000
2018-04-16 02:08:16,0.20,5.01,0.00,30.32,33.55,36.48,13.49,48.52,1008.32,1996.10,1868.25,1983.19,2279.63,600.04,576.91,30.05,0000 0000 0000 0000 000000
2018-04-16 02:13:17,0.21,5.02,0.00,30.30,33.52,36.47,13.53,48.61,1008.33,1996.19,1866.31,1981.78,2277.98,599.64,576.72,30.10,0000 0000 0000 0000 000000
2018-04-16 02:18:19,0.23,5.03,0.00,30.29,33.51,36.45,13.51,48.54,1008.34,1996.51,1864.46,1980.44,2276.40,600.02,576.99,30.15,0000 0000 0000 0000 000000
2018-04-16 02:23:20,0.22,5.04,0.00,30.27,33.50,36.42,13.53,48.70,1008.33,1996.70,1862.56,1979.05,2274.80,599.77,576.90,30.20,0000 0000 0000 0000 000000
2018-04-16 02:28:21,0.21,5.05,0.00,30.27,33.48,36.41,13.51,48.61,1008.32,1996.91,1860.69,1977.67,2273.25,599.80,576.77,30.25,0000 0000 0000 0000 000000
2018-04-16 02:33:22,0.19,5.06,0.00,30.25,33.46,36.39,13.53,48.52,1008.31,1996.96,1858.75,1976.36,2271.66,600.14,577.18,30.30,0000 0000 0000 0000 000000
2018-04-16 02:38:24,0.21,5.07,0.00,30.24,33.45,36.39,13.46,48.57,1008.31,1996.98,1856.80,1974.87,2269.90,599.94,576.95,30.35,0000 0000 0000 0000 000000
2018-04-16 02:43:25,0.18,5.08,0.00,30.24,33.43,36.38,13.49,48.59,1008.31,1996.98,1854.90,1973.51,2268.31,599.64,576.71,30.40,0000 0000 0000 0000 000000
2018-04-16 02:48:26,0.21,5.09,0.00,30.22,33.42,36.37,13.49,48.61,1008.30,1996.99,1852.89,1972.03,2266.59,599.63,576.73,30.45,0000 0000 0000 0000 000000
2018-04-16 02:53:28,0.18,5.10,0.00,30.21,33.40,36.34,13.47,48.48,1008.30,1996.99,1850.99,1970.67,2265.01,600.27,577.45,30.50,0000 0000 0000 0000 000000
2018-04-16 02:58:29,0.18,5.11,0.00,30.19,33.39,36.33,13.46,48.42,1008.31,1997.00,1849.08,1969.32,2263.47,599.58,576.85,30.55,0000 0000 0000 0000 000000
2018-04-16 03:03:30,0.21,5.12,0.00,30.18,33.37,36.30,13.48,48.53,1008.31,1997.00,1847.15,1967.84,2261.77,599.83,577.07,30.60,0000 0000 0000 0000 000000
2018-04-16 03:08:32,0.21,5.13,0.00,30.17,33.35,36.30,13.51,48.59,1008.31,1997.02,1844.99,1966.31,2259.95,599.70,576.81,30.65,0000 0000 0000 0000 000000
2018-04-16 03:13:33,0.19,5.14,0.00,30.15,33.34,36.26,13.46,48.40,1008.31,1997.03,1843.10,1964.89,2258.38,600.05,577.32,30.70,0000 0000 0000 0000 000000
2018-04-16 03:18:35,0.20,5.15,0.00,30.15,33.32,36.26,13.50,48.38,1008.31,1997.14,1841.19,1963.59,2256.80,599.98,577.31,30.75,0000 0000 0000 0000 000000
2018-04-16 03:23:36,0.19,5.16,0.00,30.14,33.31,36.26,13.52,48.50,1008.31,1997.27,1839.36,1962.20,2255.27,600.17,577.42,30.80,0000 0000 0000 0000 000000
2018-04-16 03:28:37,0.23,5.17,0.00,30.13,33.30,36.23,13.46,48.40,1008.31,1997.42,1837.51,1960.81,2253.65,599.91,577.22,30.85,0000 0000 0000 0000 000000
2018-04-16 03:33:38,0.24,5.19,0.00,30.12,33.28,36.24,13.49,48.49,1008.28,1997.75,1835.51,1959.39,2251.96,599.70,576.97,30.90,0000 0000 0000 0000 000000
2018-04-16 03:38:40,0.21,5.20,0.00,30.12,33.27,36.22,13.51,48.46,1008.25,1997.83,1833.64,1957.94,2250.39,599.88,577.08,30.95,0000 0000 0000 0000 000000
2018-04-16 03:43:41,0.22,5.21,0.00,30.11,33.26,36.20,13.56,48.42,1008.25,1997.92,1831.66,1956.50,2248.69,600.43,577.68,31.00,0000 0000 0000 0000 000000
2018-04-16 03:48:42,0.20,5.22,0.00,30.08,33.25,36.20,13.55,48.48,1008.29,1997.89,1829.57,1954.94,2246.89,600.07,577.42,31.05,0000 0000 0000 0000 000000
2018-04-16 03:53:43,0.22,5.23,0.00,30.09,33.23,36.19,13.45,48.48,1008.06,1997.96,1827.50,1953.51,2245.23,599.88,577.15,31.10,0000 0000 0000 0000 000000
2018-04-16 03:58:44,0.23,5.24,0.00,30.07,33.22,36.19,13.50,48.49,1007.87,1997.99,1825.26,1951.89,2243.35,599.95,577.14,31.15,0000 0000 0000 0000 000000
2018-04-16 04:03:46,0.23,5.25,0.00,30.07,33.20,36.18,13.51,48.48,1007.86,1997.99,1823.05,1950.31,2241.58,600.18,577.35,31.20,0000 0000 0000 0000 000000
2018-04-16 04:08:47,0.23,5.26,0.00,30.05,33.20,36.17,13.46,48.51,1007.86,1997.99,1820.87,1948.68,2239.82,599.89,577.09,31.25,0000 0000 0000 0000 000000
2018-04-16 04:13:48,0.18,5.28,0.00,30.03,33.18,36.16,13.50,48.49,1007.90,1997.99,1818.86,1947.25,2238.28,600.24,577.40,31.30,0000 0000 0000 0000 000000
2018-04-16 04:18:50,0.17,5.28,0.00,30.01,33.17,36.17,13.46,48.51,1007.86,1997.99,1817.22,1945.92,2236.77,599.64,576.86,31.35,0000 0000 0000 0000 000000
2018-04-16 04:23:51,0.19,5.29,0.00,29.99,33.16,36.14,13.49,48.50,1007.85,1997.99,1815.51,1944.65,2235.33,599.58,576.95,31.40,0000 0000 0000 0000 000000
2018-04-16 04:28:52,0.19,5.30,0.00,30.00,33.15,36.14,13.53,48.70,1007.84,1997.99,1813.69,1943.35,2233.77,599.90,577.20,31.45,0000 0000 0000 0000 000000
2018-04-16 04:33:54,0.16,5.31,0.00,30.00,33.14,36.13,13.52,48.51,1007.84,1998.00,1812.00,1942.07,2232.32,600.14,577.36,31.50,0000 0000 0000 0000 000000
2018-04-16 04:38:55,0.24,5.32,0.00,30.01,33.12,36.12,13.50,48.43,1007.85,1998.01,1810.01,1940.62,2230.66,600.02,577.23,31.55,0000 0000 0000 0000 000000
2018-04-16 04:43:57,0.20,5.33,0.00,30.02,33.12,36.12,13.55,48.62,1007.85,1998.02,1807.93,1939.14,2228.94,599.99,577.26,31.60,0000 0000 0000 0000 000000
2018-04-16 04:48:58,0.19,5.34,0.00,30.02,33.10,36.10,13.49,48.49,1007.87,1998.03,1806.14,1937.75,2227.42,599.95,577.26,31.65,0000 0000 0000 0000 000000
2018-04-16 04:54:00,0.20,5.35,0.00,30.02,33.10,36.09,13.48,48.40,1007.84,1998.05,1804.22,1936.45,2225.76,600.03,577.24,31.70,0000 0000 0000 0000 000000
2018-04-16 04:59:01,0.22,5.36,0.00,30.01,33.10,36.09,13.54,48.55,1007.84,1998.06,1802.19,1934.92,2224.11,600.27,577.45,31.75,0000 0000 0000 0000 000000
2018-04-16 05:04:02,0.22,5.37,0.00,30.01,33.08,36.08,13.53,48.53,1007.86,1998.13,1800.13,1933.49,2222.42,600.35,577.50,31.80,0000 0000 0000 0000 000000
2018-04-16 05:09:04,0.25,5.39,0.00,30.01,33.07,36.08,13.53,48.46,1007.86,1998.12,1797.71,1931.81,2220.49,600.17,577.42,31.85,0000 0000 0000 0000 000000
2018-04-16 05:14:05,0.19,5.40,0.00,30.01,33.07,36.07,13.48,48.52,1007.84,1998.22,1795.88,1930.47,2218.92,599.73,577.09,31.90,0000 0000 0000 0000 000000
2018-04-16 05:19:06,0.17,5.41,0.00,30.01,33.05,36.06,13.49,48.52,1007.85,1998.25,1794.16,1929.26,2217.54,600.06,577.31,31.95,0000 0000 0000 0000 000000
2018-04-16 05:24:08,0.19,5.42,0.00,30.00,33.05,36.03,13.52,48.49,1007.84,1998.36,1792.54,1928.03,2216.12,600.25,577.56,32.00,0000 0000 0000 0000 000000
2018-04-16 05:29:09,0.19,5.43,0.00,30.02,33.05,36.04,13.48,48.53,1007.84,1998.57,1791.01,1926.88,2214.73,599.58,576.72,32.05,0000 0000 0000 0000 000000
2018-04-16 05:34:10,0.18,5.44,0.00,30.01,33.04,36.03,13.45,48.53,1007.85,1998.62,1789.38,1925.66,2213.40,600.03,577.27,32.11,0000 0000 0000 0000 000000
2018-04-16 05:39:12,0.19,5.45,0.00,30.01,33.02,36.03,13.50,48.56,1007.85,1998.71,1787.68,1924.48,2211.87,599.90,577.15,32.16,0000 0000 0000 0000 000000
2018-04-16 05:44:13,0.19,5.46,0.00,30.00,33.02,36.02,13.46,48.55,1007.91,1998.78,1785.88,1923.20,2210.52,599.43,576.69,32.21,0000 0000 0000 0000 000000
2018-04-16 05:49:14,0.16,5.47,0.00,29.99,33.02,36.02,13.54,48.61,1007.85,1998.83,1784.32,1921.98,2209.09,600.07,577.32,32.26,0000 0000 0000 0000 000000
2018-04-16 05:54:16,0.18,5.47,0.00,30.00,33.01,36.01,13.48,48.48,1007.86,1998.75,1782.61,1920.73,2207.61,600.06,577.27,32.31,0000 0000 0000 0000 000000
2018-04-16 05:59:17,0.18,5.48,0.00,30.00,33.00,36.01,13.48,48.69,1007.85,1998.85,1780.92,1919.64,2206.19,599.85,577.17,32.36,0000 0000 0000 0000 000000
2018-04-16 06:04:18,0.18,5.49,0.00,29.98,33.00,36.01,13.44,48.60,1007.87,1998.92,1779.33,1918.48,2204.80,599.68,576.92,32.41,0000 0000 0000 0000 000000
2018-04-16 06:09:20,0.17,5.50,0.00,29.98,33.00,35.99,13.48,48.52,1007.86,1998.93,1777.75,1917.37,2203.56,599.97,577.41,32.46,0000 0000 0000 0000 000000
2018-04-16 06:14:21,0.17,5.51,0.00,29.97,33.00,36.00,13.43,48.42,1007.84,1998.95,1776.16,1916.13,2202.07,599.77,577.04,32.51,0000 0000 0000 0000 000000
2018-04-16 06:19:22,0.18,5.52,0.00,29.96,32.98,35.99,13.49,48.51,1007.84,1998.96,1774.42,1914.85,2200.60,599.75,577.07,32.56,0000 0000 0000 0000 000000
2018-04-16 06:24:23,0.17,5.53,0.00,29.97,32.97,35.97,13.47,48.66,1007.84,1998.99,1772.80,1913.70,2199.33,599.94,577.22,32.61,0000 0000 0000 0000 000000
2018-04-16 06:29:25,0.16,5.54,0.00,29.96,32.97,35.96,13.52,48.59,1007.84,1998.99,1771.36,1912.58,2197.99,600.16,577.49,32.66,0000 0000 0000 0000 000000
2018-04-16 06:34:26,0.17,5.55,0.00,29.95,32.97,35.96,13.50,48.47,1007.85,1998.99,1769.73,1911.52,2196.70,599.75,577.13,32.71,0000 0000 0000 0000 000000
2018-04-16 06:39:27,0.23,5.56,0.00,29.95,32.97,35.95,13.50,48.54,1008.04,1998.99,1767.65,1909.95,2194.88,599.67,577.10,32.76,0000 0000 0000 0000 000000
2018-04-16 06:44:28,0.19,5.57,0.00,29.94,32.97,35.94,13.49,48.64,1008.23,1998.99,1765.89,1908.69,2193.46,599.61,577.16,32.81,0000 0000 0000 0000 000000
2018-04-16 06:49:30,0.17,5.58,0.00,29.92,32.95,35.95,13.52,48.63,1008.19,1998.99,1764.34,1907.51,2192.07,600.42,577.86,32.86,0000 0000 0000 0000 000000
2018-04-16 06:54:31,0.18,5.59,0.00,29.92,32.95,35.93,13.48,48.68,1008.22,1998.99,1762.71,1906.31,2190.70,599.48,577.21,32.91,0000 0000 0000 0000 000000
2018-04-16 06:59:32,0.14,5.59,0.00,29.94,32.95,35.93,13.51,48.62,1008.26,1998.99,1761.32,1905.24,2189.49,600.38,578.03,32.96,0000 0000 0000 0000 000000
2018-04-16 07:04:33,0.15,5.60,0.00,29.92,32.95,35.94,13.53,48.65,1008.29,1998.99,1759.92,1904.24,2188.29,599.82,577.40,33.02,0000 0000 0000 0000 000000
2018-04-16 07:09:34,0.16,5.61,0.00,29.91,32.95,35.93,13.51,48.61,1008.30,1998.99,1758.49,1903.24,2186.99,599.79,577.48,33.07,0000 0000 0000 0000 000000
2018-04-16 07:14:36,0.15,5.62,0.00,29.91,32.95,35.92,13.54,48.71,1008.30,1998.99,1757.05,1902.13,2185.79,599.92,577.60,33.12,0000 0000 0000 0000 000000
2018-04-16 07:19:37,0.16,5.63,0.00,29.91,32.93,35.92,13.48,48.60,1008.31,1998.99,1755.61,1901.09,2184.56,599.90,577.65,33.17,0000 0000 0000 0000 000000
2018-04-16 07:24:39,0.13,5.63,0.00,29.90,32.92,35.91,13.50,48.70,1008.31,1998.99,1754.28,1900.05,2183.37,599.83,577.48,33.22,0000 0000 0000 0000 000000
2018-04-16 07:29:40,0.16,5.64,0.00,29.89,32.92,35.91,13.47,48.56,1008.31,1998.99,1752.83,1899.03,2182.17,600.22,577.93,33.27,0000 0000 0000 0000 000000
2018-04-16 07:34:41,0.16,5.65,0.00,29.89,32.92,35.90,13.46,48.64,1008.31,1998.99,1751.45,1897.94,2180.88,599.46,577.19,33.32,0000 0000 0000 0000 000000
2018-04-16 07:39:43,0.14,5.66,0.00,29.90,32.92,35.90,13.51,48.72,1008.31,1998.99,1750.00,1896.92,2179.69,600.06,577.86,33.37,0000 0000 0000 0000 000000
2018-04-16 07:44:44,0.17,5.66,0.00,29.89,32.91,35.90,13.48,48.70,1008.31,1998.99,1748.58,1895.89,2178.45,599.68,577.46,33.42,0000 0000 0000 0000 000000
2018-04-16 07:49:45,0.15,5.67,0.00,29.89,32.90,35.89,13.51,48.47,1008.32,1998.99,1747.18,1894.83,2177.26,600.20,577.93,33.47,0000 0000 0000 0000 000000
2018-04-16 07:54:47,0.17,5.68,0.00,29.89,32.90,35.88,13.57,48.62,1008.32,1999.00,1745.70,1893.75,2175.98,600.17,577.87,33.52,0000 0000 0000 0000 000000
2018-04-16 07:59:48,0.15,5.69,0.00,29.89,32.90,35.87,13.53,48.64,1008.32,1999.00,1744.40,1892.68,2174.79,600.33,577.91,33.57,0000 0000 0000 0000 000000
2018-04-16 08:04:49,0.16,5.70,0.00,29.87,32.90,35.89,13.50,48.63,1008.33,1999.00,1742.95,1891.60,2173.56,599.62,577.44,33.62,0000 0000 0000 0000 000000
2018-04-16 08:09:51,0.16,5.71,0.00,29.87,32.90,35.82,13.46,48.47,1008.33,1999.00,1741.43,1890.45,2172.25,599.83,577.60,33.67,0000 0000 0000 0000 000000
2018-04-16 08:14:52,0.15,5.71,0.00,29.85,32.89,35.83,13.57,48.58,1008.38,1999.01,1739.97,1889.38,2170.95,600.08,577.96,33.72,0000 0000 0000 0000 000000
2018-04-16 08:19:53,0.17,5.72,0.00,29.83,32.88,35.87,13.48,48.66,1008.50,1999.01,1738.53,1888.31,2169.66,599.92,577.93,33.77,0000 0000 0000 0000 000000
2018-04-16 08:24:55,0.14,5.73,0.00,29.84,32.87,35.88,13.46,48.67,1008.40,1999.00,1737.08,1887.22,2168.39,599.91,577.83,33.82,0000 0000 0000 0000 000000
2018-04-16 08:29:56,0.16,5.74,0.00,29.86,32.87,35.87,13.54,48.67,1008.56,1999.01,1735.65,1886.09,2167.22,599.97,577.90,33.87,0000 0000 0000 0000 000000
2018-04-16 08:34:57,0.15,5.75,0.00,29.85,32.87,35.85,13.54,48.61,1008.47,1999.03,1734.18,1885.04,2165.88,600.18,577.96,33.92,0000 0000 0000 0000 000000
2018-04-16 08:39:59,0.16,5.76,0.00,29.85,32.87,35.87,13.58,48.71,1008.40,1999.04,1732.77,1884.00,2164.69,600.07,577.79,33.97,0000 0000 0000 0000 000000
2018-04-16 08:45:00,0.19,5.76,0.00,29.85,32.87,35.83,13.44,48.59,1008.51,1999.07,1731.15,1882.78,2163.29,599.62,577.68,34.03,0000 0000 0000 0000 000000
2018-04-16 08:50:01,0.25,5.78,0.00,29.82,32.87,35.81,13.50,48.63,1008.70,1999.03,1728.92,1881.11,2161.39,599.85,577.82,34.08,0000 0000 0000 0000 000000
2018-04-16 08:55:03,0.26,5.79,0.00,29.80,32.87,35.75,13.51,48.59,1008.67,1999.13,1726.83,1879.52,2159.54,599.80,577.97,34.13,0000 0000 0000 0000 000000
2018-04-16 09:00:04,0.29,5.80,0.00,29.79,32.87,35.85,13.62,48.65,1008.78,1999.15,1724.32,1877.62,2157.34,600.15,578.24,34.18,0000 0000 0000 0000 000000
2018-04-16 09:05:05,0.24,5.82,0.00,29.80,32.87,35.85,13.56,48.67,1008.80,1999.12,1721.95,1875.86,2155.36,600.25,578.43,34.23,0000 0000 0000 0000 000000
2018-04-16 09:10:06,0.35,5.83,0.00,29.81,32.86,35.85,13.51,48.63,1008.80,1999.11,1719.15,1873.77,2152.98,599.89,578.06,34.28,0000 0000 0000 0000 000000
2018-04-16 09:15:08,0.42,5.85,0.00,29.80,32.86,35.84,13.43,48.75,1008.82,1999.20,1715.55,1871.02,2149.78,599.85,578.01,34.33,0000 0000 0000 0000 000000
2018-04-16 09:20:09,0.34,5.87,0.00,29.81,32.85,35.84,13.54,48.66,1008.82,1999.13,1712.45,1868.58,2146.98,600.10,578.28,34.38,0000 0000 0000 0000 000000
2018-04-16 09:25:10,0.27,5.89,0.00,29.79,32.85,35.79,13.46,48.61,1008.84,1999.11,1710.03,1866.60,2144.72,599.83,578.02,34.43,0000 0000 0000 0000 000000
2018-04-16 09:30:12,0.22,5.90,0.00,29.76,32.85,35.82,13.47,48.63,1008.89,1999.09,1707.99,1864.97,2142.85,599.74,578.04,34.48,0000 0000 0000 0000 000000
2018-04-16 09:35:13,0.22,5.91,0.00,29.75,32.85,35.83,13.55,48.73,1009.03,1999.11,1706.18,1863.61,2141.18,600.17,578.62,34.53,0000 0000 0000 0000 000000
2018-04-16 09:40:15,0.20,5.92,0.00,29.76,32.85,35.82,13.55,48.65,1009.21,1999.13,1704.46,1862.17,2139.57,599.76,578.25,34.58,0000 0000 0000 0000 000000
2018-04-16 09:45:16,0.21,5.93,0.00,29.74,32.85,35.81,13.52,48.67,1009.28,1999.08,1702.63,1860.80,2137.99,600.15,578.63,34.63,0000 0000 0000 0000 000000
2018-04-16 09:50:17,0.21,5.94,0.00,29.74,32.85,35.81,13.49,48.64,1009.28,1999.14,1700.89,1859.58,2136.54,599.85,578.40,34.68,0000 0000 0000 0000 000000
2018-04-16 09:55:18,0.19,5.95,0.00,29.73,32.85,35.81,13.50,48.70,1009.29,1999.27,1699.30,1858.45,2135.21,600.03,578.55,34.73,0000 0000 0000 0000 000000
2018-04-16 10:00:20,0.17,5.96,0.00,29.74,32.85,35.79,13.46,48.63,1009.29,1999.28,1697.74,1857.28,2133.85,599.89,578.51,34.78,0000 0000 0000 0000 000000
2018-04-16 10:05:21,0.16,5.97,0.00,29.74,32.85,35.79,13.54,48.67,1009.29,1999.33,1696.53,1856.37,2132.73,600.03,578.56,34.83,0000 0000 0000 0000 000000
2018-04-16 10:10:22,0.12,5.98,0.00,29.73,32.85,35.79,13.53,48.63,1009.30,1999.26,1695.39,1855.50,2131.67,599.84,578.51,34.89,0000 0000 0000 0000 000000
2018-04-16 10:15:24,0.12,5.98,0.00,29.71,32.84,35.80,13.47,48.74,1009.29,1999.30,1694.10,1854.79,2130.68,599.85,578.61,34.94,0000 0000 0000 0000 000000
2018-04-16 10:20:25,0.28,6.00,0.00,29.69,32.83,35.79,13.55,48.69,1009.30,1999.34,1691.93,1853.25,2128.86,600.20,578.87,34.99,0000 0000 0000 0000 000000
2018-04-16 10:25:27,0.20,6.01,0.00,29.70,32.82,35.79,13.57,48.73,1009.31,1999.47,1690.19,1852.02,2127.44,600.13,578.85,35.04,0000 0000 0000 0000 000000
2018-04-16 10:30:28,0.23,6.02,0.00,29.69,32.82,35.79,13.49,48.72,1009.30,1999.21,1687.79,1850.34,2125.53,599.93,578.63,35.09,0000 0000 0000 0000 000000
2018-04-16 10:35:29,0.28,6.03,0.00,29.68,32.82,35.76,13.52,48.61,1009.34,1999.40,1685.59,1848.85,2123.82,599.87,578.62,35.14,0000 0000 0000 0000 000000
2018-04-16 10:40:30,0.22,6.04,0.00,29.67,32.82,35.78,13.57,48.66,1009.43,1999.68,1683.78,1847.64,2122.42,599.95,578.78,35.19,0000 0000 0000 0000 000000
2018-04-16 10:45:32,0.16,6.05,0.00,29.67,32.82,35.77,13.56,48.65,1009.60,1999.90,1682.50,1846.74,2121.33,599.85,578.78,35.24,0000 0000 0000 0000 000000
2018-04-16 10:50:33,0.12,6.06,0.00,29.67,32.81,35.76,13.54,48.67,1009.66,1999.87,1681.36,1845.87,2120.28,600.10,579.10,35.29,0000 0000 0000 0000 000000
2018-04-16 10:55:35,0.13,6.07,0.00,29.66,32.80,35.75,13.55,48.77,1009.53,1999.89,1680.30,1844.95,2119.24,600.04,578.99,35.34,0000 0000 0000 0000 000000
2018-04-16 11:00:36,0.15,6.08,0.00,29.66,32.80,35.75,13.47,48.68,1009.47,1999.89,1678.95,1844.00,2118.13,599.83,578.61,35.39,0000 0000 0000 0000 000000
2018-04-16 11:05:37,0.15,6.08,0.00,29.65,32.80,35.73,13.57,48.80,1009.42,1999.78,1677.60,1842.97,2116.89,600.05,578.91,35.44,0000 0000 0000 0000 000000
2018-04-16 11:10:38,0.15,6.09,0.00,29.64,32.80,35.72,13.53,48.77,1009.43,1999.81,1676.29,1841.99,2115.73,600.35,579.21,35.49,0000 0000 0000 0000 000000
2018-04-16 11:15:40,0.16,6.10,0.00,29.66,32.78,35.71,13.49,48.73,1009.46,1999.86,1674.91,1840.99,2114.62,599.85,578.72,35.54,0000 0000 0000 0000 000000
2018-04-16 11:20:41,0.15,6.11,0.00,29.66,32.77,35.70,13.49,48.67,1009.48,1999.87,1673.60,1840.04,2113.47,599.58,578.48,35.59,0000 0000 0000 0000 000000
2018-04-16 11:25:42,0.16,6.12,0.00,29.65,32.77,35.70,13.57,48.74,1009.49,1999.90,1672.29,1839.06,2112.35,600.10,578.95,35.64,0000 0000 0000 0000 000000
2018-04-16 11:30:43,0.28,6.13,0.00,29.66,32.77,35.69,13.57,48.73,1009.56,1999.93,1670.10,1837.62,2110.73,600.33,579.15,35.69,0000 0000 0000 0000 000000
2018-04-16 11:35:45,0.20,6.14,0.00,29.63,32.76,35.69,13.54,48.67,1009.76,1999.96,1667.90,1836.13,2109.09,600.08,579.16,35.74,0000 0000 0000 0000 000000
2018-04-16 11:40:46,0.17,6.15,0.00,29.63,32.75,35.70,13.55,48.65,1009.78,1999.97,1666.37,1835.01,2107.78,599.97,579.03,35.80,0000 0000 0000 0000 000000
2018-04-16 11:45:47,0.20,6.16,0.00,29.63,32.75,35.69,13.49,48.63,1009.78,1999.96,1664.72,1833.86,2106.44,599.89,579.08,35.85,0000 0000 0000 0000 000000
2018-04-16 11:50:48,0.14,6.17,0.00,29.63,32.75,35.68,13.59,48.77,1009.78,1999.98,1663.48,1832.87,2105.28,600.21,579.22,35.90,0000 0000 0000 0000 000000
2018-04-16 11:55:50,0.13,6.17,0.00,29.64,32.75,35.67,13.50,48.58,1009.78,1999.98,1662.31,1831.98,2104.19,600.09,579.15,35.95,0000 0000 0000 0000 000000
2018-04-16 12:00:51,0.14,6.18,0.00,29.60,32.73,35.67,13.51,48.63,1009.78,1999.99,1661.09,1831.08,2103.21,599.85,578.97,36.00,0000 0000 0000 0000 000000
2018-04-16 12:05:52,0.14,6.19,0.00,29.60,32.72,35.68,13.60,48.55,1009.79,1999.99,1659.93,1830.16,2102.14,600.05,578.98,36.05,0000 0000 0000 0000 000000
2018-04-16 12:10:54,0.13,6.20,0.00,29.59,32.72,35.69,13.56,48.57,1009.80,1999.99,1658.86,1829.39,2101.16,599.86,579.00,36.10,0000 0000 0000 0000 000000
2018-04-16 12:15:55,0.14,6.20,0.00,29.60,32.72,35.68,13.51,48.65,1009.86,1999.99,1657.75,1828.59,2100.17,600.27,579.42,36.15,0000 0000 0000 0000 000000
2018-04-16 12:20:56,0.10,6.21,0.00,29.57,32.72,35.66,13.60,48.66,1009.80,1999.99,1656.84,1827.77,2099.30,600.22,579.39,36.20,0000 0000 0000 0000 000000
2018-04-16 12:25:57,0.16,6.22,0.00,29.57,32.72,35.66,13.61,48.77,1009.81,1999.99,1655.65,1826.78,2098.09,600.00,579.20,36.25,0000 0000 0000 0000 000000
2018-04-16 12:30:58,0.15,6.22,0.00,29.56,32.70,35.67,13.51,48.67,1009.80,1999.99,1654.36,1825.77,2096.94,599.67,578.89,36.30,0000 0000 0000 0000 000000
2018-04-16 12:36:00,0.15,6.23,0.00,29.58,32.70,35.65,13.54,48.70,1009.79,1999.99,1652.97,1824.83,2095.80,600.47,579.66,36.35,0000 0000 0000 0000 000000
2018-04-16 12:41:01,0.18,6.24,0.00,29.58,32.70,35.63,13.57,48.75,1009.78,1999.99,1651.67,1823.78,2094.61,599.82,578.96,36.40,0000 0000 0000 0000 000000
2018-04-16 12:46:02,0.16,6.25,0.00,29.57,32.70,35.63,13.60,48.76,1009.78,1999.99,1650.24,1822.71,2093.38,600.03,579.22,36.45,0000 0000 0000 0000 000000
2018-04-16 12:51:04,0.16,6.26,0.00,29.52,32.68,35.63,13.56,48.70,1009.78,1999.99,1648.78,1821.67,2092.14,600.24,579.56,36.50,0000 0000 0000 0000 000000
2018-04-16 12:56:05,0.15,6.26,0.00,29.53,32.67,35.64,13.59,48.75,1009.78,1999.99,1647.52,1820.70,2091.00,599.95,579.22,36.55,0000 0000 0000 0000 000000